Air Resources Laboratory banner image
Air Resources Laboratory web site National Oceanic and Atmospheric Administration (NOAA)

or roundup


Office: PQR

ASUS46 KPQR 180310
RWROR

OREGON REGIONAL WEATHER ROUNDUP
NATIONAL WEATHER SERVICE PORTLAND OR
800 PM PDT TUE JUL 17 2018

NOTE: "FAIR" INDICATES FEW OR NO CLOUDS BELOW 12,000 FEET WITH
NO SIGNIFICANT WEATHER AND/OR OBSTRUCTIONS TO VISIBILITY.

ORZ001>013-180400-
NORTHWEST OREGON


CITY           SKY/WX    TMP DP  RH WIND       PRES   REMARKS
ASTORIA        CLOUDY    61  59  93 W7        30.12S
TILLAMOOK      CLOUDY    63  55  77 W8        30.15R
NEWPORT        CLOUDY    59  57  94 N3        30.16F
PORTLAND       CLEAR     81  56  42 N7        30.00R
VANCOUVER WA   CLEAR     79  57  46 N10       30.00R
SCAPPOOSE      CLEAR     74  58  57 N12       30.01R
HILLSBORO      CLEAR     82  54  37 NW13      30.00R
AURORA         CLEAR     81  56  42 SW7       30.01R
MCMINNVILLE    CLEAR     72  57  59 SW14      30.01R
SALEM          CLEAR     79  48  33 W12       30.01R
CORVALLIS      CLEAR     70  56  61 NW29G35   30.03S
EUGENE         CLEAR     82  52  35 NW7       30.03R
$$

ORZ021-028-180400-
SOUTHWEST OREGON


CITY           SKY/WX    TMP DP  RH WIND       PRES   REMARKS
NORTH BEND     CLOUDY    61  57  87 N13       30.15R
BROOKINGS      CLEAR     63  55  75 SE8       30.03R
ROSEBURG       CLEAR     84  41  21 NW12      30.03R
SEXTON SUMMIT  CLEAR     75  49  39 N8        30.16S
GRANTS PASS    FAIR      91  41  17 NW12      29.99R
MEDFORD        CLEAR     95  48  20 N12       29.95R HX  91
$$

ORZ014>016-041-180400-
COLUMBIA GORGE


CITY           SKY/WX    TMP DP  RH WIND       PRES   REMARKS
TROUTDALE      CLEAR     83  54  36 VRB3      29.99R
HOOD RIVER     CLEAR     82  46  28 W3        29.96R
THE DALLES     CLEAR     90  46  21 NW15G23   29.91R
$$

ORZ029>031-041-044-049-050-061>064-502-503-505>511-180400-
EASTERN OREGON


CITY           SKY/WX    TMP DP  RH WIND       PRES   REMARKS
MADRAS         CLEAR     84  43  23 NW16      30.04R
REDMOND        CLEAR     88  35  15 NW14      30.06R
BEND           CLEAR     88  34  14 W7G14     30.08R
PRINEVILLE     CLEAR     86  28  12 NW13      30.07S
KLAMATH FALLS  CLEAR     86  33  15 NW14      30.12R
LAKEVIEW       CLEAR     85  41  21 SW6       30.15S
HERMISTON      CLEAR     94  40  15 SW15      29.83R HX  90
PENDLETON      CLEAR     91  31  11 W13       29.90S
JOHN DAY       CLEAR     90  33  13 NW14      30.04R
MEACHAM        CLEAR     79  38  22 CALM      30.08R
LA GRANDE      CLEAR     86  46  24 NW8       29.98R
BAKER CITY     CLEAR     83  54  36 SW6       30.01S
BURNS          CLEAR     86  32  14 SW7       30.06S
ROME             N/A    N/A N/A N/A NW7       30.05R
ONTARIO        CLEAR     85  63  47 S6        29.92S
$$




Office: LKN ASUS65 KLKN 180040 RTPLKN Regional Temperature And Precipitation Table...Late Afternoon National Weather Service Elko NV 540 PM PDT Tue Jul 17 2018 ***Automated Airport Stations*** Values represent lows over the last 18 hours... Values reflect the previous 18 hours and precipitation over the last 24 hours...ending at 4 PM PST/5 PM PDT today. .BR LKN 0717 P DH16/TAIRZS/TAIRZI/PPDRZZ/SFDRZZ/SDIRZZ : :ID Station Elev / Max / Min / Pcpn / :.................................................................... : EKO : Elko ASOS 5074 : 97 / 55 / 0.00 / ELY : Ely ASOS 6262 : 96 / 53 / 0.00 / P68 : Eureka ASOS 5936 : 97 / 58 / 0.00 / TPH : Tonopah ASOS 5395 : 99 / 69 / 0.00 / ENV : Wendover AWOS 4236 : 101 / 70 / 0.17 / WMC : Winnemucca ASOS 4314 : 101 / 53 / 0.00 / .END ***Manual synoptic reporting stations in north and central Nevada*** Values reflect the previous 24 hours ending at 4 PM PST/5 PM PDT *Snow stations may only report during periods of snowfall* .BR LKN 0717 P DH16/TAIRZX/TAIRZN/PPDRZZ/SFDRZZ/SDIRZZ : Snow Snow :ID Station Elev Max / Min / Pcpn / Fall / Dpth :.................................................................... : ZLKN2 : Elko NWS Office 5235 : 96 / 56 / 0.00 / 0.0 / 0 ZELN2 : Ely Snow 6487 : M / M / M / M / M ZWIN2 : Winnemucca Snow 4355 : M / M / M / M / M .END ***Cooperative stations in north and central Nevada*** Values reflect the previous 24 hours Report time as indicated .BR LKN 0717 P DH16/TAIRZX/TAIRZN/PPDRZZ/SFDRZZ/SDIRZZ : Snow Snow :ID Station Elev Time / Max / Min / Pcpn / Fall / Dpth :.................................................................... : B23 : Battle MT. 4SE 4505 5 PM: M / M / M / M / M BOWN2 : Beowawe 4700 4 PM: M / M / M / M / M MCDN2 : McDermitt 4340 4 PM: M / M / M / M / M AWH : Wild Horse Res. 6239 6 PM: M / M / M / M / M .END M = Missing data T = Trace amounts ASOS = Automated Surface Observing System AWOS = Automated Weather Observation System NWS = National Weather Service These data are preliminary and have not undergone final quality control (QC) by NCEI. Therefore, these data are subject to revision. Final and certified data can be accessed at the National Centers For Environmental Information (NCEI) - www.ncei.noaa.gov $$